FW4609 Weather Reports


time (UTC)temp
C
wind
direction
speed
KPH
gust
KPH
rain 1hr
cm
rain 24hr
cm
rain mn
cm
humidity
%
barometer
mb
20260510060014 7 13 0.0 3.2 0.00 0.69 0.00 85 1009.0
20260510054612 7 6 0.0 3.2 0.00 0.69 0.00 86 1009.1
20260510053022 8 347 0.0 1.6 0.00 0.69 0.00 88 1008.8
20260510051616 8 345 0.0 3.2 0.00 0.69 0.00 89 1008.8
20260510050032 8 3 1.6 3.2 0.00 0.69 0.00 92 1008.6
20260510044640 8 352 0.0 6.4 0.00 0.69 0.00 92 1008.5
20260510043042 8 12 0.0 3.2 0.00 0.69 0.00 92 1008.2
20260510041635 8 217 0.0 1.6 0.00 0.69 0.00 92 1007.1
20260510040053 8 217 0.0 1.6 0.00 0.69 0.69 92 1007.3
20260510034517 7 147 0.0 0.0 0.00 0.69 0.69 91 1007.0
20260510033116 8 147 0.0 0.0 0.00 0.69 0.69 91 1006.5
20260510031538 8 147 0.0 0.0 0.00 0.69 0.69 91 1006.3
20260510030134 8 147 0.0 0.0 0.00 0.69 0.69 91 1006.4
20260510024548 8 147 0.0 1.6 0.00 0.69 0.69 91 1006.4
20260510023014 8 160 0.0 1.6 0.00 0.69 0.69 91 1006.5
20260510021612 8 159 0.0 1.6 0.00 0.69 0.69 90 1006.6
20260510020032 9 193 0.0 1.6 0.00 0.69 0.69 89 1006.3
20260510014625 9 193 0.0 0.0 0.00 0.69 0.69 89 1006.1
20260510011506 10 194 0.0 1.6 0.00 0.69 0.69 88 1005.6
20260510010119 10 193 0.0 1.6 0.00 0.69 0.69 88 1005.2
20260510004509 10 181 0.0 3.2 0.00 0.69 0.69 88 1005.0
20260510003108 11 207 0.0 3.2 0.00 0.69 0.69 87 1004.9
20260510001524 11 197 1.6 3.2 0.00 0.69 0.69 86 1004.4
20260510000109 11 198 1.6 4.8 0.00 0.69 0.69 86 1004.3
20260509234529 11 206 1.6 4.8 0.00 0.69 0.69 86 1004.1
20260509233123 11 139 3.2 4.8 0.18 0.69 0.69 87 1004.1
20260509231554 11 199 1.6 4.8 0.41 0.69 0.69 88 1003.8
20260509230018 11 190 1.6 4.8 0.53 0.69 0.69 90 1004.2
20260509224613 10 155 0.0 3.2 0.66 0.69 0.69 89 1004.6
20260509223035 10 240 1.6 16.1 0.43 0.43 0.43 88 1005.8
20260509221635 10 273 9.7 22.5 0.28 0.28 0.28 86 1005.9
20260509220108 12 321 19.3 35.4 0.15 0.15 0.15 80 1005.7
20260509214530 14 266 1.6 6.4 0.00 0.00 0.00 81 1003.5
20260509213119 15 217 1.6 3.2 0.00 0.00 0.00 79 1003.3
20260509211543 15 207 3.2 6.4 0.00 0.00 0.00 78 1002.9
20260509210125 16 172 4.8 8.0 0.00 0.00 0.00 77 1002.8
20260509204535 16 176 3.2 6.4 0.00 0.00 0.00 77 1002.9
20260509203146 15 203 3.2 6.4 0.00 0.00 0.00 78 1003.3
20260509201528 15 206 3.2 8.0 0.00 0.00 0.00 78 1003.5
20260509200115 15 183 3.2 9.7 0.00 0.00 0.00 79 1003.8
20260509194533 15 184 3.2 8.0 0.00 0.00 0.00 77 1004.3
20260509193137 16 190 4.8 9.7 0.00 0.00 0.00 77 1004.2
20260509191557 15 209 4.8 9.7 0.00 0.00 0.00 78 1004.1
20260509190010 16 208 6.4 9.7 0.00 0.00 0.00 77 1004.3
20260509184600 16 200 6.4 11.3 0.00 0.00 0.00 77 1004.4
20260509183020 16 221 4.8 12.9 0.00 0.00 0.00 75 1004.7
20260509181511 17 173 6.4 11.3 0.00 0.00 0.00 75 1004.8
20260509180109 16 172 6.4 11.3 0.00 0.00 0.00 76 1004.8
20260509173115 17 192 6.4 11.3 0.00 0.00 0.00 75 1005.0
20260509171528 16 180 4.8 11.3 0.00 0.00 0.00 76 1005.2
20260509170126 16 198 4.8 9.7 0.00 0.00 0.00 79 1005.5
20260509164557 16 190 6.4 12.9 0.00 0.00 0.00 77 1005.5
20260509163130 16 233 4.8 12.9 0.00 0.00 0.00 76 1005.8
20260509161545 16 209 6.4 11.3 0.00 0.00 0.00 77 1005.6
20260509160131 16 218 6.4 11.3 0.00 0.00 0.00 77 1005.9
20260509154549 15 160 4.8 9.7 0.00 0.00 0.00 78 1006.2
20260509153012 15 212 4.8 9.7 0.00 0.00 0.00 78 1006.4
20260509151608 15 203 6.4 9.7 0.00 0.00 0.00 78 1006.3
20260509150015 15 238 4.8 9.7 0.00 0.00 0.00 79 1006.3
20260509144606 15 205 4.8 11.3 0.00 0.00 0.00 78 1006.4
20260509143023 14 204 3.2 8.0 0.00 0.00 0.00 81 1006.3
20260509141504 13 188 4.8 8.0 0.00 0.00 0.00 82 1006.4
20260509140048 13 219 3.2 8.0 0.00 0.00 0.00 83 1006.6
20260509134502 12 194 3.2 6.4 0.00 0.00 0.00 84 1006.7
20260509133037 12 192 3.2 8.0 0.00 0.00 0.00 85 1006.6
20260509131519 11 181 3.2 6.4 0.00 0.00 0.00 87 1007.0
20260509130113 11 208 1.6 6.4 0.00 0.00 0.00 88 1007.1
20260509124542 11 205 3.2 6.4 0.00 0.00 0.00 89 1007.0
20260509123006 11 197 3.2 4.8 0.00 0.00 0.00 91 1007.0
20260509121545 10 195 1.6 4.8 0.00 0.00 0.00 92 1007.1
20260509120009 10 190 1.6 3.2 0.00 0.00 0.00 93 1007.2
20260509114550 10 200 0.0 1.6 0.00 0.00 0.00 93 1007.1
20260509113008 8 162 0.0 1.6 0.00 0.00 0.00 93 1007.0
20260509111551 8 150 0.0 1.6 0.00 0.00 0.00 93 1007.0
20260509110133 7 150 0.0 1.6 0.00 0.00 0.00 93 1007.0
20260509104553 7 152 0.0 1.6 0.00 0.03 0.00 92 1007.1
20260509103015 7 152 0.0 0.0 0.00 0.03 0.00 92 1007.2
20260509101630 6 152 0.0 0.0 0.00 0.03 0.00 92 1007.4
20260509100049 6 152 0.0 0.0 0.00 0.03 0.00 91 1007.4
20260509094518 7 152 0.0 1.6 0.00 0.03 0.00 91 1007.2
20260509093112 7 152 0.0 0.0 0.00 0.03 0.00 91 1007.2
20260509091524 7 152 0.0 0.0 0.00 0.03 0.00 91 1007.3
20260509090116 7 152 0.0 0.0 0.00 0.03 0.00 91 1007.5
20260509084535 7 152 0.0 0.0 0.00 0.03 0.00 91 1007.6
20260509083125 6 152 0.0 0.0 0.00 0.03 0.00 91 1007.6
20260509081604 6 152 0.0 0.0 0.00 0.03 0.00 91 1007.7
20260509080033 5 152 0.0 0.0 0.00 0.03 0.00 90 1007.7
20260509074626 5 152 0.0 0.0 0.00 0.03 0.00 89 1007.9
20260509073030 4 152 0.0 0.0 0.00 0.03 0.00 88 1007.8
20260509071625 4 152 0.0 0.0 0.00 0.03 0.00 88 1008.0
20260509070045 3 152 0.0 0.0 0.00 0.03 0.00 87 1008.0
20260509064510 3 152 0.0 0.0 0.00 0.03 0.00 86 1008.2
20260509063104 4 152 0.0 0.0 0.00 0.03 0.00 86 1008.3
20260509061524 4 152 0.0 0.0 0.00 0.03 0.00 86 1008.5